Time,TemperatureF,DewpointF,PressureIn,WindDirection,WindDirectionDegrees,WindSpeedMPH,WindSpeedGustMPH,Humidity,HourlyPrecipIn,Conditions,Clouds,dailyrainin,SoftwareType,DateUTC
2013-03-30 00:02:00,41.0,30.0,30.13,SSE,163,0.0,0.0,64,0.00,,,0.00,,2013-03-30 04:02:00,
2013-03-30 00:13:00,41.0,30.0,30.13,SSE,163,0.0,0.0,64,0.00,,,0.00,,2013-03-30 04:13:00,
2013-03-30 00:23:00,40.0,29.0,30.13,SSE,162,0.0,0.0,65,0.00,,,0.00,,2013-03-30 04:23:00,
2013-03-30 00:33:00,40.0,30.0,30.14,SSE,162,0.0,0.0,67,0.00,,,0.00,,2013-03-30 04:33:00,
2013-03-30 00:43:00,40.0,30.0,30.14,SSE,162,0.0,0.0,67,0.00,,,0.00,,2013-03-30 04:43:00,
2013-03-30 00:52:00,39.0,30.0,30.14,SSE,162,0.0,0.0,69,0.00,,,0.00,,2013-03-30 04:52:00,
2013-03-30 01:02:00,39.0,30.0,30.13,SSE,162,0.0,0.0,70,0.00,,,0.00,,2013-03-30 05:02:00,
2013-03-30 01:12:00,39.0,30.0,30.13,SSE,162,0.0,0.0,70,0.00,,,0.00,,2013-03-30 05:12:00,
2013-03-30 01:22:00,40.0,30.0,30.13,South,174,0.0,0.0,68,0.00,,,0.00,,2013-03-30 05:22:00,
2013-03-30 01:32:00,38.0,29.0,30.14,South,189,0.0,3.0,71,0.00,,,0.00,,2013-03-30 05:32:00,
2013-03-30 01:42:00,38.0,29.0,30.14,South,189,0.0,3.0,71,0.00,,,0.00,,2013-03-30 05:42:00,
2013-03-30 01:52:00,38.0,30.0,30.13,South,190,0.0,0.0,72,0.00,,,0.00,,2013-03-30 05:52:00,
2013-03-30 02:02:00,37.0,29.0,30.14,South,189,0.0,1.0,74,0.00,,,0.00,,2013-03-30 06:02:00,
2013-03-30 02:12:00,37.0,29.0,30.14,South,189,0.0,1.0,74,0.00,,,0.00,,2013-03-30 06:12:00,
2013-03-30 02:23:00,36.0,29.0,30.13,South,191,0.0,1.0,76,0.00,,,0.00,,2013-03-30 06:23:00,
2013-03-30 02:32:00,35.0,29.0,30.14,SSW,207,0.0,1.0,79,0.00,,,0.00,,2013-03-30 06:32:00,
2013-03-30 02:42:00,35.0,29.0,30.14,SSW,207,0.0,1.0,79,0.00,,,0.00,,2013-03-30 06:42:00,
2013-03-30 02:52:00,35.0,29.0,30.14,SSW,207,0.0,1.0,79,0.00,,,0.00,,2013-03-30 06:52:00,
2013-03-30 03:02:00,33.0,28.0,30.13,SSW,207,0.0,0.0,82,0.00,,,0.00,,2013-03-30 07:02:00,
2013-03-30 03:12:00,33.0,28.0,30.13,SSW,207,0.0,0.0,82,0.00,,,0.00,,2013-03-30 07:12:00,
2013-03-30 03:22:00,34.0,29.0,30.13,SSW,200,0.0,1.0,82,0.00,,,0.00,,2013-03-30 07:22:00,
2013-03-30 03:32:00,33.0,28.0,30.13,SW,217,0.0,1.0,80,0.00,,,0.00,,2013-03-30 07:32:00,
2013-03-30 03:42:00,33.0,28.0,30.13,SW,217,0.0,1.0,80,0.00,,,0.00,,2013-03-30 07:42:00,
2013-03-30 03:52:00,32.0,27.0,30.13,SSW,200,0.0,1.0,83,0.00,,,0.00,,2013-03-30 07:52:00,
2013-03-30 04:02:00,32.0,28.0,30.13,SSW,193,0.0,1.0,85,0.00,,,0.00,,2013-03-30 08:02:00,
2013-03-30 04:12:00,32.0,28.0,30.13,SSW,193,0.0,1.0,85,0.00,,,0.00,,2013-03-30 08:12:00,
2013-03-30 04:22:00,32.0,28.0,30.13,SSW,192,0.0,0.0,85,0.00,,,0.00,,2013-03-30 08:22:00,
2013-03-30 04:32:00,31.0,27.0,30.13,SSW,193,0.0,1.0,85,0.00,,,0.00,,2013-03-30 08:32:00,
2013-03-30 04:42:00,31.0,27.0,30.13,SSW,193,0.0,1.0,85,0.00,,,0.00,,2013-03-30 08:42:00,
2013-03-30 04:52:00,32.0,28.0,30.13,SSW,192,0.0,1.0,85,0.00,,,0.00,,2013-03-30 08:52:00,
2013-03-30 05:02:00,32.0,28.0,30.13,WSW,240,0.0,1.0,85,0.00,,,0.00,,2013-03-30 09:02:00,
2013-03-30 05:12:00,32.0,28.0,30.13,WSW,240,0.0,1.0,85,0.00,,,0.00,,2013-03-30 09:12:00,
2013-03-30 05:22:00,32.0,28.0,30.13,WSW,240,0.0,0.0,84,0.00,,,0.00,,2013-03-30 09:22:00,
2013-03-30 05:33:00,33.0,28.0,30.13,SW,224,0.0,0.0,82,0.00,,,0.00,,2013-03-30 09:33:00,
2013-03-30 05:43:00,33.0,28.0,30.13,SW,224,0.0,0.0,82,0.00,,,0.00,,2013-03-30 09:43:00,
2013-03-30 05:53:00,32.0,27.0,30.13,SW,224,0.0,0.0,82,0.00,,,0.00,,2013-03-30 09:53:00,
2013-03-30 06:03:00,31.0,26.0,30.14,SW,224,0.0,1.0,83,0.00,,,0.00,,2013-03-30 10:03:00,
2013-03-30 06:13:00,31.0,26.0,30.14,SW,224,0.0,1.0,83,0.00,,,0.00,,2013-03-30 10:13:00,
2013-03-30 06:23:00,30.0,26.0,30.14,SW,224,0.0,0.0,85,0.00,,,0.00,,2013-03-30 10:23:00,
2013-03-30 06:33:00,29.0,25.0,30.14,South,188,1.0,2.0,86,0.00,,,0.00,,2013-03-30 10:33:00,
2013-03-30 06:42:00,29.0,25.0,30.14,South,188,1.0,2.0,86,0.00,,,0.00,,2013-03-30 10:42:00,
2013-03-30 06:52:00,29.0,26.0,30.14,SSW,203,0.0,1.0,88,0.00,,,0.00,,2013-03-30 10:52:00,
2013-03-30 07:04:00,29.0,26.0,30.15,SSW,203,0.0,0.0,87,0.00,,,0.00,,2013-03-30 11:04:00,
2013-03-30 07:12:00,29.0,26.0,30.15,SSW,203,0.0,0.0,87,0.00,,,0.00,,2013-03-30 11:12:00,
2013-03-30 07:23:00,29.0,26.0,30.15,SSW,203,0.0,0.0,88,0.00,,,0.00,,2013-03-30 11:23:00,
2013-03-30 07:33:00,30.0,27.0,30.16,SSW,203,0.0,0.0,88,0.00,,,0.00,,2013-03-30 11:33:00,
2013-03-30 07:42:00,30.0,27.0,30.16,SSW,203,0.0,0.0,88,0.00,,,0.00,,2013-03-30 11:42:00,
2013-03-30 07:52:00,31.0,27.0,30.16,SSW,203,0.0,1.0,86,0.00,,,0.00,,2013-03-30 11:52:00,
2013-03-30 08:02:00,34.0,30.0,30.16,SSW,204,0.0,0.0,86,0.00,,,0.00,,2013-03-30 12:02:00,
2013-03-30 08:13:00,34.0,30.0,30.16,SSW,204,0.0,0.0,86,0.00,,,0.00,,2013-03-30 12:13:00,
2013-03-30 08:23:00,37.0,31.0,30.16,SSW,203,0.0,0.0,80,0.00,,,0.00,,2013-03-30 12:23:00,
2013-03-30 08:33:00,36.0,29.0,30.17,NE,34,0.0,3.0,77,0.00,,,0.00,,2013-03-30 12:33:00,
2013-03-30 08:42:00,36.0,29.0,30.17,NE,34,0.0,3.0,77,0.00,,,0.00,,2013-03-30 12:42:00,
2013-03-30 08:52:00,37.0,30.0,30.17,NNW,329,1.0,3.0,76,0.00,,,0.00,,2013-03-30 12:52:00,
2013-03-30 09:02:00,39.0,32.0,30.17,North,352,0.0,2.0,75,0.00,,,0.00,,2013-03-30 13:02:00,
2013-03-30 09:12:00,39.0,32.0,30.17,North,352,0.0,2.0,75,0.00,,,0.00,,2013-03-30 13:12:00,
2013-03-30 09:22:00,40.0,32.0,30.17,NNW,336,2.0,5.0,72,0.00,,,0.00,,2013-03-30 13:22:00,
2013-03-30 09:32:00,41.0,32.0,30.17,NNW,345,3.0,6.0,70,0.00,,,0.00,,2013-03-30 13:32:00,
2013-03-30 09:43:00,41.0,32.0,30.17,NNW,345,3.0,6.0,70,0.00,,,0.00,,2013-03-30 13:43:00,
2013-03-30 09:52:00,42.0,32.0,30.17,NNE,23,3.0,5.0,68,0.00,,,0.00,,2013-03-30 13:52:00,
2013-03-30 10:03:00,43.0,33.0,30.17,NNW,347,2.0,4.0,68,0.00,,,0.00,,2013-03-30 14:03:00,
2013-03-30 10:12:00,43.0,33.0,30.17,NNW,347,2.0,4.0,68,0.00,,,0.00,,2013-03-30 14:12:00,
2013-03-30 10:23:00,44.0,33.0,30.17,ENE,61,1.0,5.0,65,0.00,,,0.00,,2013-03-30 14:23:00,
2013-03-30 10:32:00,46.0,34.0,30.16,North,352,1.0,3.0,62,0.00,,,0.00,,2013-03-30 14:32:00,
2013-03-30 10:42:00,46.0,34.0,30.16,North,352,1.0,3.0,62,0.00,,,0.00,,2013-03-30 14:42:00,
2013-03-30 10:52:00,47.0,33.0,30.16,East,79,2.0,5.0,59,0.00,,,0.00,,2013-03-30 14:52:00,
2013-03-30 11:03:00,48.0,31.0,30.16,SE,138,4.0,6.0,52,0.00,,,0.00,,2013-03-30 15:03:00,
2013-03-30 11:12:00,48.0,31.0,30.16,SE,138,4.0,6.0,52,0.00,,,0.00,,2013-03-30 15:12:00,
2013-03-30 11:23:00,49.0,32.0,30.16,East,84,5.0,7.0,51,0.00,,,0.00,,2013-03-30 15:23:00,
2013-03-30 11:34:00,49.0,31.0,30.16,NE,43,5.0,9.0,49,0.00,,,0.00,,2013-03-30 15:34:00,
2013-03-30 11:43:00,49.0,31.0,30.16,NE,43,5.0,9.0,49,0.00,,,0.00,,2013-03-30 15:43:00,
2013-03-30 11:52:00,50.0,30.0,30.15,NE,50,7.0,11.0,46,0.00,,,0.00,,2013-03-30 15:52:00,
2013-03-30 12:03:00,50.0,30.0,30.15,NE,56,12.0,15.0,46,0.00,,,0.00,,2013-03-30 16:03:00,
2013-03-30 12:13:00,49.0,30.0,30.15,East,94,4.0,7.0,47,0.00,,,0.00,,2013-03-30 16:13:00,
2013-03-30 12:23:00,49.0,30.0,30.15,East,94,4.0,7.0,47,0.00,,,0.00,,2013-03-30 16:23:00,
2013-03-30 12:33:00,50.0,29.0,30.14,East,97,5.0,9.0,44,0.00,,,0.00,,2013-03-30 16:33:00,
2013-03-30 12:43:00,50.0,29.0,30.14,East,97,5.0,9.0,44,0.00,,,0.00,,2013-03-30 16:43:00,
2013-03-30 12:52:00,51.0,30.0,30.14,NE,49,10.0,13.0,44,0.00,,,0.00,,2013-03-30 16:52:00,
2013-03-30 13:02:00,52.0,31.0,30.13,ENE,72,4.0,10.0,44,0.00,,,0.00,,2013-03-30 17:02:00,
2013-03-30 13:13:00,52.0,31.0,30.13,ENE,72,4.0,10.0,44,0.00,,,0.00,,2013-03-30 17:13:00,
2013-03-30 13:23:00,51.0,28.0,30.12,East,96,6.0,16.0,40,0.00,,,0.00,,2013-03-30 17:23:00,
2013-03-30 13:33:00,52.0,28.0,30.11,ENE,60,4.0,8.0,40,0.00,,,0.00,,2013-03-30 17:33:00,
2013-03-30 13:42:00,52.0,28.0,30.11,ENE,60,4.0,8.0,40,0.00,,,0.00,,2013-03-30 17:42:00,
2013-03-30 13:52:00,52.0,27.0,30.11,NE,37,4.0,7.0,37,0.00,,,0.00,,2013-03-30 17:52:00,
2013-03-30 14:03:00,53.0,29.0,30.10,ESE,115,2.0,7.0,40,0.00,,,0.00,,2013-03-30 18:03:00,
2013-03-30 14:13:00,53.0,27.0,30.10,NNE,30,2.0,5.0,37,0.00,,,0.00,,2013-03-30 18:13:00,
2013-03-30 14:22:00,53.0,27.0,30.10,NNE,30,2.0,5.0,37,0.00,,,0.00,,2013-03-30 18:22:00,
2013-03-30 14:32:00,52.0,27.0,30.09,East,89,2.0,8.0,38,0.00,,,0.00,,2013-03-30 18:32:00,
2013-03-30 14:42:00,52.0,27.0,30.09,East,89,2.0,8.0,38,0.00,,,0.00,,2013-03-30 18:42:00,
2013-03-30 14:53:00,54.0,29.0,30.09,ESE,111,4.0,13.0,38,0.00,,,0.00,,2013-03-30 18:53:00,
2013-03-30 15:03:00,53.0,28.0,30.08,East,85,6.0,11.0,38,0.00,,,0.00,,2013-03-30 19:03:00,
2013-03-30 15:13:00,53.0,28.0,30.08,East,85,6.0,11.0,38,0.00,,,0.00,,2013-03-30 19:13:00,
2013-03-30 15:22:00,54.0,28.0,30.08,ENE,65,12.0,17.0,37,0.00,,,0.00,,2013-03-30 19:22:00,
2013-03-30 15:32:00,53.0,27.0,30.08,ESE,117,6.0,13.0,37,0.00,,,0.00,,2013-03-30 19:32:00,
2013-03-30 15:42:00,53.0,27.0,30.08,ESE,117,6.0,13.0,37,0.00,,,0.00,,2013-03-30 19:42:00,
2013-03-30 15:53:00,54.0,28.0,30.07,NNW,334,7.0,10.0,37,0.00,,,0.00,,2013-03-30 19:53:00,
2013-03-30 16:02:00,54.0,28.0,30.07,NE,47,2.0,9.0,36,0.00,,,0.00,,2013-03-30 20:02:00,
2013-03-30 16:12:00,54.0,28.0,30.07,NE,47,2.0,9.0,36,0.00,,,0.00,,2013-03-30 20:12:00,
2013-03-30 16:33:00,54.0,27.0,30.06,East,86,7.0,11.0,35,0.00,,,0.00,,2013-03-30 20:33:00,
2013-03-30 16:42:00,54.0,27.0,30.06,East,86,7.0,11.0,35,0.00,,,0.00,,2013-03-30 20:42:00,
2013-03-30 16:53:00,55.0,27.0,30.06,ENE,72,12.0,15.0,34,0.00,,,0.00,,2013-03-30 20:53:00,
2013-03-30 17:02:00,55.0,28.0,30.06,East,91,5.0,8.0,35,0.00,,,0.00,,2013-03-30 21:02:00,
2013-03-30 17:12:00,55.0,28.0,30.06,East,91,5.0,8.0,35,0.00,,,0.00,,2013-03-30 21:12:00,
2013-03-30 17:23:00,55.0,27.0,30.06,ENE,63,8.0,14.0,34,0.00,,,0.00,,2013-03-30 21:23:00,
2013-03-30 17:34:00,55.0,26.0,30.06,ENE,71,3.0,9.0,32,0.00,,,0.00,,2013-03-30 21:34:00,
2013-03-30 17:43:00,55.0,26.0,30.06,ENE,71,3.0,9.0,32,0.00,,,0.00,,2013-03-30 21:43:00,
2013-03-30 17:53:00,56.0,27.0,30.06,ESE,115,1.0,8.0,32,0.00,,,0.00,,2013-03-30 21:53:00,
2013-03-30 18:03:00,55.0,25.0,30.06,ENE,76,4.0,8.0,31,0.00,,,0.00,,2013-03-30 22:03:00,
2013-03-30 18:13:00,55.0,25.0,30.06,ENE,76,4.0,8.0,31,0.00,,,0.00,,2013-03-30 22:13:00,
2013-03-30 18:23:00,55.0,25.0,30.06,NE,51,5.0,11.0,31,0.00,,,0.00,,2013-03-30 22:23:00,
2013-03-30 18:33:00,55.0,26.0,30.06,NE,48,6.0,11.0,33,0.00,,,0.00,,2013-03-30 22:33:00,
2013-03-30 18:43:00,55.0,26.0,30.06,NE,48,6.0,11.0,33,0.00,,,0.00,,2013-03-30 22:43:00,
2013-03-30 18:54:00,55.0,26.0,30.06,ENE,58,4.0,13.0,32,0.00,,,0.00,,2013-03-30 22:54:00,
2013-03-30 19:02:00,54.0,26.0,30.06,ENE,78,4.0,6.0,34,0.00,,,0.00,,2013-03-30 23:02:00,
2013-03-30 19:12:00,54.0,26.0,30.06,ENE,78,4.0,6.0,34,0.00,,,0.00,,2013-03-30 23:12:00,
2013-03-30 19:22:00,54.0,27.0,30.06,NE,56,3.0,6.0,35,0.00,,,0.00,,2013-03-30 23:22:00,
2013-03-30 19:33:00,53.0,25.0,30.06,ENE,75,3.0,4.0,34,0.00,,,0.00,,2013-03-30 23:33:00,
2013-03-30 19:42:00,53.0,25.0,30.06,ENE,75,3.0,4.0,34,0.00,,,0.00,,2013-03-30 23:42:00,
2013-03-30 19:53:00,52.0,26.0,30.06,NE,44,2.0,4.0,36,0.00,,,0.00,,2013-03-30 23:53:00,
2013-03-30 20:02:00,51.0,27.0,30.06,NE,41,0.0,2.0,39,0.00,,,0.00,,2013-03-31 00:02:00,
2013-03-30 20:12:00,51.0,27.0,30.06,NE,41,0.0,2.0,39,0.00,,,0.00,,2013-03-31 00:12:00,
2013-03-30 20:22:00,50.0,27.0,30.06,NNW,327,0.0,2.0,40,0.00,,,0.00,,2013-03-31 00:22:00,
2013-03-30 20:32:00,49.0,26.0,30.06,WSW,242,0.0,1.0,41,0.00,,,0.00,,2013-03-31 00:32:00,
2013-03-30 20:42:00,49.0,26.0,30.06,WSW,242,0.0,1.0,41,0.00,,,0.00,,2013-03-31 00:42:00,
2013-03-30 20:53:00,48.0,27.0,30.07,WSW,240,0.0,1.0,44,0.00,,,0.00,,2013-03-31 00:53:00,
2013-03-30 21:02:00,46.0,28.0,30.08,SSW,194,1.0,3.0,49,0.00,,,0.00,,2013-03-31 01:02:00,
2013-03-30 21:12:00,46.0,28.0,30.08,SSW,194,1.0,3.0,49,0.00,,,0.00,,2013-03-31 01:12:00,
2013-03-30 21:22:00,46.0,28.0,30.08,SSW,194,1.0,3.0,49,0.00,,,0.00,,2013-03-31 01:22:00,
2013-03-30 21:32:00,45.0,28.0,30.09,SSW,194,0.0,2.0,52,0.00,,,0.00,,2013-03-31 01:32:00,
2013-03-30 21:42:00,45.0,28.0,30.09,SSW,194,0.0,2.0,52,0.00,,,0.00,,2013-03-31 01:42:00,
2013-03-30 21:53:00,43.0,28.0,30.09,SSW,198,3.0,5.0,56,0.00,,,0.00,,2013-03-31 01:53:00,
2013-03-30 22:02:00,42.0,28.0,30.09,SSW,205,2.0,4.0,57,0.00,,,0.00,,2013-03-31 02:02:00,
2013-03-30 22:13:00,42.0,28.0,30.09,SSW,205,2.0,4.0,57,0.00,,,0.00,,2013-03-31 02:13:00,
2013-03-30 22:22:00,42.0,29.0,30.09,South,190,2.0,4.0,59,0.00,,,0.00,,2013-03-31 02:22:00,
2013-03-30 22:32:00,41.0,28.0,30.09,SSW,204,0.0,3.0,59,0.00,,,0.00,,2013-03-31 02:32:00,
2013-03-30 22:43:00,41.0,28.0,30.09,SSW,204,0.0,3.0,59,0.00,,,0.00,,2013-03-31 02:43:00,
2013-03-30 22:53:00,40.0,28.0,30.09,SSW,200,0.0,2.0,61,0.00,,,0.00,,2013-03-31 02:53:00,
2013-03-30 23:02:00,40.0,28.0,30.09,SSW,207,2.0,3.0,63,0.00,,,0.00,,2013-03-31 03:02:00,
2013-03-30 23:13:00,40.0,28.0,30.09,SSW,207,2.0,3.0,63,0.00,,,0.00,,2013-03-31 03:13:00,
2013-03-30 23:22:00,39.0,28.0,30.09,SSW,201,1.0,3.0,65,0.00,,,0.00,,2013-03-31 03:22:00,
2013-03-30 23:33:00,39.0,28.0,30.09,SSW,202,3.0,4.0,65,0.00,,,0.00,,2013-03-31 03:33:00,
2013-03-30 23:43:00,39.0,28.0,30.09,SSW,202,3.0,4.0,65,0.00,,,0.00,,2013-03-31 03:43:00,
2013-03-30 23:54:00,40.0,28.0,30.09,SW,217,2.0,3.0,62,0.00,,,0.00,,2013-03-31 03:54:00,